Regional Weather Roundup
Issued by NWS Raleigh/Durham, NC

Home | Current Version | Previous Version | Text Only | Print | Product List | Glossary On
Versions: 1 2 3 4 5 6 7 8 9 10 11 12 13 14 15 16 17 18 19 20 21 22 23 24 25 26 27 28 29 30 31 32 33 34 35 36 37 38 39 40 41 42 43 44 45 46 47 48 49 50
000
ASUS42 KRAH 122010
RWRRAH
NORTH CAROLINA WEATHER ROUNDUP
NATIONAL WEATHER SERVICE RALEIGH NC
300 PM EST FRI FEB 12 2016

NOTE: "FAIR" INDICATES FEW OR NO CLOUDS BELOW 12,000 FEET WITH NO
SIGNIFICANT WEATHER AND/OR OBSTRUCTIONS TO VISIBILITY.

NCZ001-053-055-056-065-067-122100-
WESTERN NORTH CAROLINA

CITY           SKY/WX    TMP DP  RH WIND       PRES   REMARKS
ASHEVILLE      CLOUDY    37  28  70 N12       30.00S WCI  29
JEFFERSON      LGT SNOW  32  25  76 W7G18     29.89F WCI  25
MORGANTON      MOSUNNY   42  20  40 S5        30.03F
HICKORY        MOSUNNY   38  19  46 S6        29.99F WCI  33
RUTHERFORDTON  CLOUDY    37  22  54 S5        30.02F WCI  33
MOUNT AIRY     PTSUNNY   34  12  40 SE6       30.02F WCI  29
BOONE          LGT SNOW  32  28  83 NW17G28   29.91F WCI  21
$$

NCZ021-022-025-041-071-084-088-122100-
CENTRAL NORTH CAROLINA

CITY           SKY/WX    TMP DP  RH WIND       PRES   REMARKS
CHARLOTTE      CLOUDY    36  19  50 CALM      30.04F
GREENSBORO     CLOUDY    35  12  38 CALM      30.02F
WINSTON-SALEM  PTSUNNY   35  12  38 CALM      30.03F
RALEIGH-DURHAM FLURRIES  29  20  69 CALM      30.07F
FORT BRAGG     CLOUDY    30  27  86 N6        30.05F WCI  24
FAYETTEVILLE   CLOUDY    31  28  89 N8        30.07F WCI  23
BURLINGTON     PTSUNNY   34  14  43 VRB3      30.03F
LAURINBURG     CLOUDY    31  26  82 NE8       30.08F WCI  23
$$

NCZ011-015-027-028-043-044-047-080-103-122100-
NORTHEASTERN NORTH CAROLINA

CITY           SKY/WX    TMP DP  RH WIND       PRES   REMARKS
ROCKY MT-WILSO LGT SNOW  28  24  85 NE5       30.08F FOG     WCI  23
GREENVILLE     LGT SNOW  32  30  93 NE3       30.09F
WASHINGTON     LGT SNOW  30  27  90 NE8       30.07F WCI  22
ELIZABETH CITY LGT SNOW  28  26  92 NE9       30.09F VSB 3/4 WCI  19
MANTEO         LGT SNOW  31  30  99 NE8       30.07F WCI  23
CAPE HATTERAS  LGT RAIN  34  33  96 NE14G26   30.01F WCI  25
$$

NCZ078-087-090-091-093-098-101-122100-
SOUTHEASTERN NORTH CAROLINA

CITY           SKY/WX    TMP DP  RH WIND       PRES   REMARKS
LUMBERTON      CLOUDY    33  27  78 NE8       30.06F WCI  26
GOLDSBORO      FRZ RAIN  30  30 100 N6        30.06F WCI  24
KINSTON        DRIZZLE   30  30 100 N6        30.08F WCI  24
KENANSVILLE    MIX PCPN  31  30  96 CALM      30.08F
NEW BERN       MIX PCPN  32  29  88 N10       30.08R FOG     WCI  24
CHERRY POINT   CLOUDY    33  31  92 N12       30.04F FOG     WCI  24
BEAUFORT       CLOUDY    34  32  92 N15       30.01F WCI  24
JACKSONVILLE   LGT RAIN  34  31  88 N13       30.06R WCI  25
WILMINGTON     CLOUDY    36  31  82 N8        30.03F WCI  30
$$




USA.gov is the U.S. government's official web portal to all federal, state and local government web resources and services.